| time (UTC) | temp F | wind direction | speed knots | gust knots | rain 1hr in | rain 24hr in | rain mn in | humidity % | barometer mb |
| 20260505063100 | 68 | 360 | 5.2 | 11.3 | 0.00 | 0.00 | 0.00 | 60 | 1008.7 |
| 20260505063041 | 68 | 360 | 5.2 | 11.3 | 0.00 | 0.00 | 0.00 | 72 | 1008.8 |
| 20260505061559 | 68 | 360 | 5.2 | 12.2 | 0.00 | 0.00 | 0.00 | 60 | 1008.9 |
| 20260505061538 | 68 | 360 | 6.1 | 12.2 | 0.00 | 0.00 | 0.00 | 72 | 1008.9 |
| 20260505060104 | 68 | 360 | 3.5 | 9.6 | 0.00 | 0.00 | 0.00 | 60 | 1008.9 |
| 20260505060045 | 68 | 360 | 3.5 | 7.8 | 0.00 | 0.00 | 0.00 | 71 | 1008.8 |
| 20260505054626 | 68 | 360 | 3.5 | 10.4 | 0.00 | 0.00 | 0.00 | 59 | 1009.2 |
| 20260505054535 | 68 | 360 | 2.6 | 10.4 | 0.00 | 0.00 | 0.00 | 71 | 1009.1 |
| 20260505053108 | 68 | 360 | 3.5 | 13.9 | 0.00 | 0.00 | 0.00 | 59 | 1009.1 |
| 20260505053032 | 68 | 360 | 4.3 | 13.9 | 0.00 | 0.00 | 0.00 | 71 | 1009.0 |
| 20260505051555 | 68 | 360 | 4.3 | 12.2 | 0.00 | 0.00 | 0.00 | 59 | 1009.2 |
| 20260505051530 | 68 | 360 | 4.3 | 12.2 | 0.00 | 0.00 | 0.00 | 70 | 1009.2 |
| 20260505041559 | 69 | 360 | 4.3 | 9.6 | 0.00 | 0.00 | 0.00 | 58 | 1009.5 |
| 20260505041527 | 69 | 360 | 5.2 | 10.4 | 0.00 | 0.00 | 0.00 | 70 | 1009.4 |
| 20260505040059 | 69 | 360 | 3.5 | 10.4 | 0.00 | 0.00 | 0.00 | 58 | 1009.5 |
| 20260505040026 | 69 | 360 | 3.5 | 7.8 | 0.00 | 0.00 | 0.00 | 70 | 1009.3 |
| 20260505034556 | 69 | 360 | 3.5 | 9.6 | 0.00 | 0.00 | 0.00 | 58 | 1009.5 |
| 20260505034524 | 69 | 360 | 3.5 | 9.6 | 0.00 | 0.00 | 0.00 | 69 | 1009.4 |
| 20260505033054 | 69 | 360 | 4.3 | 8.7 | 0.00 | 0.00 | 0.00 | 57 | 1009.4 |
| 20260505033024 | 69 | 360 | 4.3 | 8.7 | 0.00 | 0.00 | 0.00 | 69 | 1009.3 |
| 20260505031606 | 69 | 360 | 3.5 | 10.4 | 0.00 | 0.00 | 0.00 | 57 | 1009.4 |
| 20260505031523 | 69 | 360 | 3.5 | 9.6 | 0.00 | 0.00 | 0.00 | 69 | 1009.4 |
| 20260505030053 | 70 | 360 | 5.2 | 10.4 | 0.00 | 0.00 | 0.00 | 56 | 1009.7 |
| 20260505030022 | 70 | 360 | 5.2 | 10.4 | 0.00 | 0.00 | 0.00 | 68 | 1009.6 |
| 20260505024554 | 70 | 360 | 4.3 | 10.4 | 0.00 | 0.00 | 0.00 | 56 | 1009.7 |
| 20260505024522 | 70 | 360 | 4.3 | 10.4 | 0.00 | 0.00 | 0.00 | 67 | 1009.6 |
| 20260505023114 | 70 | 360 | 4.3 | 9.6 | 0.00 | 0.00 | 0.00 | 56 | 1009.5 |
| 20260505023024 | 70 | 360 | 4.3 | 8.7 | 0.00 | 0.00 | 0.00 | 67 | 1009.4 |
| 20260505021558 | 70 | 360 | 4.3 | 8.7 | 0.00 | 0.00 | 0.00 | 55 | 1009.3 |
| 20260505021527 | 70 | 360 | 4.3 | 8.7 | 0.00 | 0.00 | 0.00 | 67 | 1009.0 |
| 20260505020056 | 70 | 181 | 3.5 | 7.0 | 0.00 | 0.00 | 0.00 | 55 | 1009.1 |
| 20260505020021 | 70 | 198 | 4.3 | 6.1 | 0.00 | 0.00 | 0.00 | 66 | 1008.9 |
| 20260505014605 | 71 | 169 | 3.5 | 9.6 | 0.00 | 0.00 | 0.00 | 53 | 1008.8 |
| 20260505014520 | 71 | 163 | 3.5 | 8.7 | 0.00 | 0.00 | 0.00 | 65 | 1008.8 |
| 20260505013108 | 72 | 178 | 4.3 | 8.7 | 0.00 | 0.00 | 0.00 | 53 | 1008.7 |
| 20260505013019 | 72 | 184 | 5.2 | 8.7 | 0.00 | 0.00 | 0.00 | 64 | 1008.6 |
| 20260505011557 | 72 | 162 | 4.3 | 8.7 | 0.00 | 0.00 | 0.00 | 52 | 1008.7 |
| 20260505011523 | 72 | 187 | 4.3 | 7.8 | 0.00 | 0.00 | 0.00 | 63 | 1008.6 |
| 20260505010100 | 73 | 149 | 3.5 | 10.4 | 0.00 | 0.00 | 0.00 | 51 | 1008.9 |
| 20260505010017 | 73 | 135 | 2.6 | 10.4 | 0.00 | 0.00 | 0.00 | 63 | 1008.8 |
| 20260505004559 | 73 | 182 | 2.6 | 7.8 | 0.00 | 0.00 | 0.00 | 51 | 1008.8 |
| 20260505004521 | 73 | 175 | 2.6 | 7.0 | 0.00 | 0.00 | 0.00 | 62 | 1008.7 |
| 20260505003054 | 74 | 174 | 0.9 | 8.7 | 0.00 | 0.00 | 0.00 | 49 | 1008.8 |
| 20260505003016 | 74 | 189 | 1.7 | 7.8 | 0.00 | 0.00 | 0.00 | 61 | 1008.7 |
| 20260505001600 | 75 | 186 | 4.3 | 10.4 | 0.00 | 0.00 | 0.00 | 47 | 1008.9 |
| 20260505001516 | 75 | 168 | 4.3 | 10.4 | 0.00 | 0.00 | 0.00 | 59 | 1008.8 |
| 20260505000117 | 76 | 185 | 5.2 | 13.0 | 0.00 | 0.00 | 0.00 | 46 | 1008.9 |
| 20260505000021 | 76 | 191 | 4.3 | 13.0 | 0.00 | 0.00 | 0.00 | 57 | 1008.9 |
| 20260504234557 | 77 | 175 | 6.1 | 11.3 | 0.00 | 0.00 | 0.00 | 45 | 1009.0 |
| 20260504234512 | 77 | 146 | 6.1 | 11.3 | 0.00 | 0.00 | 0.00 | 56 | 1008.8 |
| 20260504233057 | 77 | 181 | 6.1 | 13.9 | 0.00 | 0.00 | 0.00 | 44 | 1009.0 |
| 20260504233012 | 77 | 147 | 6.1 | 13.9 | 0.00 | 0.00 | 0.00 | 55 | 1008.9 |
| 20260504231555 | 77 | 182 | 5.2 | 13.0 | 0.00 | 0.00 | 0.00 | 43 | 1009.4 |
| 20260504231511 | 77 | 165 | 6.1 | 11.3 | 0.00 | 0.00 | 0.00 | 55 | 1009.2 |
| 20260504230106 | 77 | 179 | 4.3 | 10.4 | 0.00 | 0.00 | 0.00 | 44 | 1009.6 |
| 20260504230007 | 78 | 171 | 4.3 | 9.6 | 0.00 | 0.00 | 0.00 | 55 | 1009.5 |
| 20260504224554 | 79 | 241 | 3.5 | 10.4 | 0.00 | 0.00 | 0.00 | 43 | 1009.6 |
| 20260504224506 | 79 | 174 | 3.5 | 7.8 | 0.00 | 0.00 | 0.00 | 55 | 1009.4 |
| 20260504223101 | 79 | 122 | 5.2 | 11.3 | 0.00 | 0.00 | 0.00 | 43 | 1009.6 |
| 20260504223008 | 79 | 122 | 5.2 | 10.4 | 0.00 | 0.00 | 0.00 | 55 | 1009.5 |
| 20260504221603 | 79 | 202 | 7.0 | 14.8 | 0.00 | 0.00 | 0.00 | 41 | 1009.9 |
| 20260504221503 | 79 | 193 | 7.0 | 12.2 | 0.00 | 0.00 | 0.00 | 52 | 1009.8 |
| 20260504220100 | 79 | 170 | 3.5 | 8.7 | 0.00 | 0.00 | 0.00 | 41 | 1010.0 |
| 20260504220002 | 79 | 180 | 3.5 | 8.7 | 0.00 | 0.00 | 0.00 | 53 | 1009.9 |
| 20260504214557 | 78 | 170 | 6.1 | 13.9 | 0.00 | 0.00 | 0.00 | 40 | 1010.2 |
| 20260504213121 | 79 | 138 | 6.1 | 11.3 | 0.00 | 0.00 | 0.00 | 52 | 1010.3 |
| 20260504213102 | 79 | 167 | 6.1 | 13.0 | 0.00 | 0.00 | 0.00 | 41 | 1010.4 |
| 20260504211600 | 79 | 167 | 7.0 | 13.9 | 0.00 | 0.00 | 0.00 | 39 | 1010.7 |
| 20260504211556 | 79 | 148 | 7.0 | 13.0 | 0.00 | 0.00 | 0.00 | 50 | 1010.6 |
| 20260504210057 | 81 | 160 | 5.2 | 11.3 | 0.00 | 0.00 | 0.00 | 50 | 1010.9 |
| 20260504204601 | 80 | 186 | 3.5 | 9.6 | 0.00 | 0.00 | 0.00 | 36 | 1011.2 |
| 20260504204553 | 80 | 193 | 3.5 | 8.7 | 0.00 | 0.00 | 0.00 | 48 | 1011.2 |
| 20260504203102 | 80 | 173 | 4.3 | 11.3 | 0.00 | 0.00 | 0.00 | 35 | 1011.4 |
| 20260504203053 | 80 | 175 | 6.1 | 9.6 | 0.00 | 0.00 | 0.00 | 47 | 1011.3 |
| 20260504201601 | 80 | 205 | 6.1 | 13.0 | 0.00 | 0.00 | 0.00 | 34 | 1011.7 |
| 20260504200055 | 79 | 161 | 6.1 | 12.2 | 0.00 | 0.00 | 0.00 | 34 | 1012.0 |
| 20260504200046 | 79 | 158 | 6.1 | 10.4 | 0.00 | 0.00 | 0.00 | 45 | 1011.8 |
| 20260504194556 | 79 | 153 | 4.3 | 12.2 | 0.00 | 0.00 | 0.00 | 34 | 1012.2 |
| 20260504194548 | 79 | 162 | 3.5 | 9.6 | 0.00 | 0.00 | 0.00 | 46 | 1012.1 |
| 20260504193055 | 79 | 174 | 6.1 | 13.0 | 0.00 | 0.00 | 0.00 | 37 | 1012.5 |
| 20260504193039 | 79 | 232 | 6.1 | 13.0 | 0.00 | 0.00 | 0.00 | 48 | 1012.3 |
| 20260504191608 | 79 | 186 | 5.2 | 9.6 | 0.00 | 0.00 | 0.00 | 35 | 1012.6 |
| 20260504191542 | 79 | 192 | 5.2 | 7.8 | 0.00 | 0.00 | 0.00 | 47 | 1012.4 |
| 20260504190116 | 78 | 152 | 3.5 | 11.3 | 0.00 | 0.00 | 0.00 | 36 | 1012.9 |
| 20260504190033 | 78 | 188 | 3.5 | 8.7 | 0.00 | 0.00 | 0.00 | 47 | 1012.7 |
| 20260504184555 | 77 | 183 | 5.2 | 12.2 | 0.00 | 0.00 | 0.00 | 35 | 1013.0 |
| 20260504184534 | 77 | 199 | 5.2 | 11.3 | 0.00 | 0.00 | 0.00 | 46 | 1013.1 |
| 20260504183106 | 77 | 142 | 6.1 | 13.9 | 0.00 | 0.00 | 0.00 | 36 | 1013.1 |
| 20260504183030 | 77 | 160 | 7.0 | 10.4 | 0.00 | 0.00 | 0.00 | 47 | 1013.1 |
| 20260504181600 | 77 | 148 | 6.1 | 12.2 | 0.00 | 0.00 | 0.00 | 38 | 1013.3 |
| 20260504181532 | 77 | 198 | 5.2 | 12.2 | 0.00 | 0.00 | 0.00 | 47 | 1013.6 |
| 20260504180024 | 77 | 155 | 5.2 | 10.4 | 0.00 | 0.00 | 0.00 | 49 | 1013.9 |
| 20260504174558 | 76 | 162 | 7.0 | 12.2 | 0.00 | 0.00 | 0.00 | 36 | 1014.0 |
| 20260504174523 | 76 | 211 | 6.1 | 11.3 | 0.00 | 0.00 | 0.00 | 48 | 1014.1 |
| 20260504173057 | 76 | 204 | 5.2 | 15.6 | 0.00 | 0.00 | 0.00 | 38 | 1014.0 |
| 20260504173021 | 76 | 203 | 5.2 | 14.8 | 0.00 | 0.00 | 0.00 | 50 | 1014.2 |
| 20260504171553 | 75 | 203 | 7.0 | 13.9 | 0.00 | 0.00 | 0.00 | 39 | 1014.3 |
| 20260504171517 | 75 | 187 | 7.0 | 13.0 | 0.00 | 0.00 | 0.00 | 50 | 1014.4 |
| 20260504081558 | 50 | 0 | 0.0 | 0.0 | 0.00 | 0.00 | 0.00 | 54 | 1015.3 |
| 20260504080116 | 51 | 0 | 0.0 | 0.0 | 0.00 | 0.00 | 0.00 | 54 | 1015.4 |